Regional Weather Roundup
Issued by NWS Green Bay, WI

Home | Current Version | Previous Version | Graphics & Text | Print | Product List | Glossary Off
Versions: 1 2 3 4 5 6 7 8 9 10 11 12 13 14 15 16 17 18 19 20 21 22 23 24 25 26 27 28 29 30 31 32 33 34 35 36 37 38 39 40 41 42 43 44 45 46 47 48 49 50

000
ASUS43 KGRB 021600
RWRGRB

NORTH-CENTRAL AND NORTHEAST WISCONSIN REGIONAL WEATHER ROUNDUP
NATIONAL WEATHER SERVICE GREEN BAY WI
1100 AM CDT THU JUL 02 2015

WIZ005-009-010>012-018-019-021700-
NORTH CENTRAL WISCONSIN

CITY           SKY/WX    TMP DP  RH WIND       PRES   REMARKS
IRONWOOD       SUNNY     70  52  52 SW9       30.01S
MANITOWISH WTR NOT AVBL
ARBOR VITAE    NOT AVBL
EAGLE RIVER    NOT AVBL
LAND O LAKES   NOT AVBL
RHINELANDER    SUNNY     66  48  52 CALM      30.08S
PHILLIPS       SUNNY     68  48  49 SE5       30.06
ANTIGO         NOT AVBL
TOMAHAWK       NOT AVBL
MERRILL        NOT AVBL
$$

WIZ013-073-021700-
NORTHEAST WISCONSIN

CITY           SKY/WX    TMP DP  RH WIND       PRES   REMARKS
IRON MOUNTAIN  PTSUNNY   67  46  47 CALM      30.06F
MARINETTE      SUNNY     66  45  45 SE7       30.06F
$$

WIZ017-030-035>037-045-021700-
CENTRAL WISCONSIN

CITY           SKY/WX    TMP DP  RH WIND       PRES   REMARKS
MEDFORD        NOT AVBL
WAUSAU         SUNNY     68  46  45 CALM      30.07R
MOSINEE        SUNNY     64  48  55 CALM      30.09R
MARSHFIELD     SUNNY     67  51  56 SE5       30.07S
WISC RAPIDS    SUNNY     67  46  47 NE8       30.08S
STEVENS POINT  NOT AVBL
WAUPACA        NOT AVBL
SHAWANO        NOT AVBL
CLINTONVILLE   NOT AVBL
$$

WIZ038-039-048-051-021700-
FOX VALLEY

CITY           SKY/WX    TMP DP  RH WIND       PRES   REMARKS
NWS GREEN BAY  SUNNY     67  49  52 NE8       30.07S
APPLETON       SUNNY     64  45  48 E8        30.08R
OSHKOSH        SUNNY     65  46  50 NE9       30.06S
FOND DU LAC    SUNNY     65  47  52 NE12      30.06S
$$

WIZ022-050-052-021700-
EAST CENTRAL WISCONSIN

CITY           SKY/WX    TMP DP  RH WIND       PRES   REMARKS
STURGEON BAY   SUNNY     63  46  55 N6        30.09F
MANITOWOC      NOT AVBL
SHEBOYGAN      SUNNY     62  49  62 NE10      30.06S
$$

LMZ563-521-522-541>543-021700-
LAKESHORE

STATION/POSITION TIME  TEMP    WIND        PRES    VSBY  WAVE
                       AIR SEA DIR/SP/G                  HT/PER
                 (UTC) (F)     (DEG/KT/KT) (MB)    (MI)  (FT/S)
SHEBOYGAN LKSHOR 1500   56      20/  9/ 10 1018.4F
KEWAUNEE LKSHORE 1500   61      40/  6/  9 1017.6F
ALGOMA MARINA    1510           80/  9/ 11   N/A
NORTHPORT PIER   1500   59     330/  5/  6 1018.6S
N MID LAKE BUOY  1450   50 43  290/  4/  4 1018.9S         0
CHAMBERS ISLAND  1500   64     320/  4/  5 1018.6F
MENOMINEE LKSHOR 1500   62      30/  4/  4 1019.0F
$$


USA.gov is the U.S. government's official web portal to all federal, state and local government web resources and services.